Tracking 19827 objects as of 21-Aug-2019
HD Live streaming from Space Station
objects crossing your sky now

SPARK 2

Track SPARK 2 now!
10-day predictions


NORAD ID: 41901
Int'l Code: 2016-081D
Perigee: 696.0 km
Apogee: 736.0 km
Inclination: 98.2 °
Period: 99.0 minutes
Semi major axis: 7087 km
RCS: Unknown
Launch date: December 21, 2016
Source: People's Republic of China (PRC)
Launch site: Jiuquan Satellite Launch Center, China (JSC)

SPARK 2 is a secondary payload designed for high-resolution and hyperspectral remote sensing of Earth.
aabbcc
Your satellite tracking list
Your tracking list is empty




NASA's NSSDC Master Catalog

Two Line Element Set (TLE):
1 41901U 16081D   19233.54494415  .00000003  00000-0  11356-4 0  9998
2 41901  98.2447 170.3863 0028254  87.6123 272.8299 14.55149752141454
Source of the keplerian elements: AFSPC